Terminal Aerodrome Forecast
Issued by NWS Mobile, AL

Home | Current Version | Previous Version | Text Only | Print | Product List | Glossary On
Versions: 1 2 3 4 5 6 7 8 9 10 11 12 13 14 15 16 17 18 19 20 21 22 23 24 25 26 27 28 29 30 31 32 33 34 35 36 37 38 39 40
000
FTUS44 KMOB 271126
TAFPNS
TAF
KPNS 271126Z 2712/2812 12003KT 4SM BR OVC007
     FM271400 17010KT 4SM BR BKN020
     FM271900 17014G20KT P6SM SCT050 BKN100
     FM280300 18005KT 2SM BR OVC004=

USA.gov is the U.S. government's official web portal to all federal, state and local government web resources and services.